Location: Newark
(41.7772°N, 74.7403°W)
Time: 11:30:37
(UTC+00:00)

Transit 4A - Pass Details

Date: 02 June 2020
Orbit: 866 x 978 km, 66.8° (Epoch: 06 July)

Event Time Altitude Azimuth Distance (km) Brightness Sun altitude
Exits shadow 07:38:52 - 269° (W) 2,582 9.9 -15.8°
Reaches altitude 10° 07:39:06 10° 270° (W) 2,522 9.8 -15.8°
Maximum altitude 07:43:25 21° 318° (NW) 1,884 9.6 -15.3°
Drops below altitude 10° 07:47:48 10° 6° (N) 2,571 11.1 -14.8°
Sets 07:51:01 0° 23° (NNE) 3,535 12.4 -14.4°
